Content
SEND FEEDBACK

Daily
Averages
Monthly
Summary
United States of America

STATEN ISLAND, NEW YORK


Home > North America > United States > New York
Elevation: 152 feet     Latitude: 40 35N     Longitude: 074 09W

WEATHER
 
SELECT A DAY
Number of Records: 189,762;   Date Range: 1/1/95 - 8/28/14
 
SHARE

PRINT THIS DATA

[ ← Previous Day ]
WEATHER ALMANAC - MARCH 7, 2013
[ Next Day → ]
[ °C ]   °F
Weather ElementAverageHighLow
Temperature36.8 °F39.2 °F (10:39 am)33.8 °F (10:29 pm)
Dewpoint30.1 °F35.6 °F (3:46 pm)25 °F (6:51 am)
Humidity77.4 %93 % (3:46 pm)62 % (2:51 am)
Barometer30.03 in30.09 in (6:51 pm)29.92 in (2:51 am)
Wind Speed19 mph27.6 mph (7:34 am)
Wind Gust35.7 mph (7:34 am)
Weather ElementAverage
Visibility6.9 mi
Wind DirectionWSW (254.8 °)

Weather ElementTotal
Precipitation0.24 in
Heating Degree Days28.5 (Base 65)
Averaged from 33 records on March 7, 2013
WEATHER CONDITIONS BREAKOUT
WIND DIRECTION BREAKOUT
WEATHER BY HOUR - MARCH 7, 2013
[ °C ]   °F
Local TimeTemperatureDewpointHumidityBarometerVisibilityWind DirectionWind SpeedGust SpeedPrecipitationEventsConditions
1:51 AM37.9 °F27.0 °F65 %29.94 in10.0 miNorth (10°)21.9 mph32.2 mphOvercast
2:51 AM37.9 °F26.1 °F62 %29.92 in10.0 miNorth (10°)25.3 mph32.2 mphOvercast
3:51 AM37.9 °F26.1 °F62 %29.94 in10.0 miNorth (10°)18.4 mph26.5 mphOvercast
4:51 AM37.0 °F27.0 °F67 %29.96 in10.0 miNorth (10°)21.9 mph26.5 mphOvercast
5:51 AM37.0 °F26.1 °F65 %29.98 in10.0 miNorth (360°)23.0 mph29.9 mph0.00 inOvercast
6:51 AM37.0 °F25.0 °F62 %29.99 in10.0 miNorth (10°)23.0 mph0.00 inSnowLight Snow
7:34 AM35.6 °F26.6 °F70 %30.00 in2.0 miNorth (10°)27.6 mph35.7 mph0.00 inSnowLight Snow
7:51 AM35.1 °F28.0 °F76 %30.01 in2.0 miNorth (10°)24.2 mph33.4 mph0.00 inSnowLight Snow
8:00 AM35.6 °F28.4 °F75 %30.01 in6.0 miNorth (10°)20.7 mph0.00 inSnowLight Snow
8:17 AM35.6 °F26.6 °F70 %30.01 in7.0 miNorth (360°)20.7 mph33.4 mph0.00 inSnowLight Snow
8:34 AM35.6 °F28.4 °F75 %30.02 in5.0 miNorth (360°)24.2 mph32.2 mph0.00 inSnowLight Snow
8:51 AM36.0 °F28.9 °F76 %30.02 in5.0 miNorth (350°)23.0 mph28.8 mph0.00 inSnowLight Snow
9:51 AM37.9 °F28.9 °F70 %30.02 in8.0 miNorth (350°)25.3 mph35.7 mph0.00 inSnowLight Snow
10:39 AM39.2 °F28.4 °F65 %30.03 in9.0 miNorth (10°)24.2 mph31.1 mph0.00 in
10:51 AM39.0 °F28.0 °F65 %30.03 in9.0 miNorth (360°)18.4 mph0.00 in
11:41 AM39.2 °F28.4 °F65 %30.03 in9.0 miNorth (360°)20.7 mph25.3 mph0.00 in
11:51 AM39.0 °F30.0 °F70 %30.03 in10.0 miNorth (350°)18.4 mph25.3 mph0.00 in
12:00 PM39.2 °F30.2 °F70 %30.03 in9.0 miNNW (340°)17.3 mph26.5 mph0.00 in
12:51 PM39.0 °F33.1 °F79 %30.03 in8.0 miNorth (360°)17.3 mph0.00 inRainLight Rain
1:51 PM37.9 °F33.1 °F83 %30.03 in9.0 miNNW (340°)17.3 mph26.5 mph0.00 inRainLight Rain
2:51 PM37.9 °F34.0 °F86 %30.04 in9.0 miNNW (330°)19.6 mph24.2 mph0.01 inRainLight Rain
3:46 PM37.4 °F35.6 °F93 %30.05 in6.0 miNorth (350°)16.1 mph0.02 inRain-SnowLight Rain
3:51 PM37.9 °F34.0 °F86 %30.05 in6.0 miNNW (340°)12.7 mph20.7 mph0.02 inRain-SnowLight Rain
4:51 PM37.0 °F34.0 °F89 %30.06 in6.0 miNNW (340°)19.6 mph25.3 mph0.03 inRain-SnowLight Rain
5:51 PM37.0 °F33.1 °F86 %30.08 in7.0 miNNW (340°)18.4 mph24.2 mph0.02 inRain-SnowLight Rain
6:51 PM36.0 °F33.1 °F89 %30.09 in7.0 miNNW (340°)13.8 mph0.02 inRain-SnowLight Rain
7:17 PM35.6 °F33.8 °F93 %30.09 in6.0 miNorth (350°)16.1 mph21.9 mph0.00 inRain-SnowLight Rain
7:51 PM36.0 °F32.0 °F86 %30.09 in6.0 miNNW (340°)17.3 mph23.0 mph0.01 inRain-SnowLight Snow
8:51 PM35.1 °F32.0 °F89 %30.08 in6.0 miNNW (340°)16.1 mph0.00 inRain-SnowLight Snow
9:51 PM35.1 °F32.0 °F89 %30.07 in6.0 miNorth (350°)13.8 mph0.01 inSnowLight Snow
10:29 PM33.8 °F32.0 °F93 %30.07 in2.0 miNNW (340°)11.5 mph0.02 inSnowLight Snow
10:51 PM34.0 °F32.0 °F92 %30.07 in2.0 miNNW (340°)9.2 mph0.04 inSnowLight Snow
11:51 PM34.0 °F32.0 °F92 %30.06 in2.0 miNNW (330°)10.4 mph0.04 inSnowLight Snow
Hourly data recorded from KEWR, located miles away from Staten Island, New York







STORIES FROM OUR PARTNERS